Weather History for KFMM - October, 2012

Change the Weather History Date:

Sunday, October 14, 2012

  Actual Average (KAKO) Record (KAKO)
Temperature  
Mean Temperature 58 °F 51 °F  
Max Temperature 71 °F 64 °F 86 °F (1962)
Min Temperature 43 °F 37 °F 7 °F (1969)
Degree Days  
Heating Degree Days 7    
Month to date heating degree days  
Cooling Degree Days 0    
Month to date cooling degree days  
Growing Degree Days 8 (Base 50)    
Moisture  
Dew Point 35 °F    
Average Humidity 49    
Maximum Humidity 75    
Minimum Humidity 23    
Precipitation  
Precipitation 0.00 in 0.04 in 0.66 in (1966)
Month to date precipitation 0.59  
Year to date precipitation 15.24  
Sea Level Pressure  
Sea Level Pressure 30.19 in    
Wind  
Wind Speed 11 mph ()    
Max Wind Speed 18 mph    
Max Gust Speed 23 mph    
Visibility 10.0 miles    
Events      
T = Trace of Precipitation, MM = Missing Value Source: Averaged Metar Reports

Daily Weather History Graph

Daily Weather History Graph

Search for Another Location

Airport or City:

Trip Planner

Search our weather history database for the weather conditions in past years. The results will help you decide how hot, cold, wet, or windy it might be!

Date:

Astronomy

Oct. 14, 2012 Rise Set
Actual Time 7:05 AM MDT 6:15 PM MDT
Civil Twilight 6:38 AM MDT 6:43 PM MDT
Nautical Twilight 6:06 AM MDT 7:14 PM MDT
Astronomical Twilight 5:35 AM MDT 7:46 PM MDT
Moon 6:07 AM MDT (10/14) 5:37 PM MDT (10/14)
Length of Visible Light 12h 05m
Length of Day
11h 10m
Waning Crescent, 1% of the Moon is Illuminated
Oct 14
Waning Crescent
Oct 15
New
Oct 21
First Quarter
Oct 29
Full
Nov 6
Last Quarter

Hourly Weather History & Observations

Time (MDT) Temp. Windchill Dew Point Humidity Pressure Visibility Wind Dir Wind Speed Gust Speed Precip Events Conditions
12:15 AM 53.4 °F - 40.6 °F 62% 30.12 in 10.0 mi WNW 15.0 mph - N/A   Overcast
12:35 AM 53.4 °F - 41.7 °F 65% 30.12 in 10.0 mi WNW 13.8 mph 19.6 mph N/A   Overcast
12:55 AM 52.7 °F - 41.9 °F 67% 30.12 in 10.0 mi West 15.0 mph - N/A   Overcast
1:15 AM 51.4 °F - 42.6 °F 72% 30.13 in 10.0 mi WNW 11.5 mph - N/A   Overcast
1:35 AM 50.0 °F - 42.3 °F 75% 30.13 in 10.0 mi WNW 9.2 mph - N/A   Mostly Cloudy
1:55 AM 50.4 °F - 42.1 °F 73% 30.15 in 10.0 mi NW 10.4 mph - N/A   Mostly Cloudy
2:15 AM 49.5 °F - 41.9 °F 75% 30.15 in 10.0 mi NW 12.7 mph - N/A   Scattered Clouds
2:35 AM 49.1 °F - 41.2 °F 74% 30.15 in 10.0 mi NNW 16.1 mph - N/A   Clear
2:55 AM 48.9 °F - 39.4 °F 70% 30.16 in 10.0 mi NNW 16.1 mph - N/A   Scattered Clouds
3:15 AM 48.4 °F - 38.1 °F 68% 30.17 in 10.0 mi NNW 15.0 mph - N/A   Scattered Clouds
3:35 AM 48.0 °F - 36.9 °F 65% 30.16 in 10.0 mi NNW 13.8 mph - N/A   Scattered Clouds
3:55 AM 47.3 °F - 36.5 °F 66% 30.17 in 10.0 mi NNW 15.0 mph - N/A   Scattered Clouds
4:15 AM 47.7 °F - 35.2 °F 62% 30.17 in 10.0 mi NNW 15.0 mph - N/A   Scattered Clouds
4:35 AM 46.6 °F - 35.6 °F 66% 30.18 in 10.0 mi NNW 15.0 mph - N/A   Scattered Clouds
5:15 AM 46.9 °F - 35.4 °F 64% 30.19 in 10.0 mi NNW 16.1 mph - N/A   Scattered Clouds
5:35 AM 47.3 °F - 35.1 °F 62% 30.19 in 10.0 mi NNW 15.0 mph - N/A   Clear
5:55 AM 46.4 °F 39.8 °F 34.5 °F 63% 30.20 in 10.0 mi NNW 16.1 mph - N/A   Clear
6:15 AM 46.6 °F - 34.7 °F 63% 30.21 in 10.0 mi NW 16.1 mph - N/A   Clear
6:35 AM 46.8 °F - 34.7 °F 63% 30.22 in 10.0 mi NW 16.1 mph - N/A   Clear
6:55 AM 47.3 °F - 34.7 °F 62% 30.21 in 10.0 mi NNW 16.1 mph - N/A   Clear
7:15 AM 47.3 °F - 34.5 °F 61% 30.22 in 10.0 mi NW 15.0 mph - N/A   Clear
7:35 AM 48.2 °F - 34.7 °F 60% 30.23 in 10.0 mi NW 15.0 mph - N/A   Clear
7:55 AM 50.2 °F - 34.7 °F 55% 30.24 in 10.0 mi NNW 13.8 mph - N/A   Clear
8:15 AM 52.0 °F - 34.7 °F 52% 30.25 in 10.0 mi NNW 16.1 mph - N/A   Clear
8:35 AM 53.6 °F - 34.7 °F 49% 30.25 in 10.0 mi NNW 13.8 mph - N/A   Clear
8:55 AM 56.7 °F - 34.5 °F 43% 30.26 in 10.0 mi NNW 12.7 mph 17.3 mph N/A   Clear
9:15 AM 57.2 °F - 38.3 °F 49% 30.27 in 10.0 mi West 10.4 mph 18.4 mph N/A   Scattered Clouds
9:35 AM 54.9 °F - 38.1 °F 53% 30.27 in 10.0 mi WSW 8.1 mph - N/A   Mostly Cloudy
9:55 AM 56.1 °F - 38.1 °F 51% 30.28 in 10.0 mi West 6.9 mph - N/A   Scattered Clouds
10:15 AM 58.1 °F - 38.1 °F 47% 30.26 in 10.0 mi West 8.1 mph - N/A   Scattered Clouds
10:35 AM 58.8 °F - 38.8 °F 47% 30.27 in 10.0 mi West 10.4 mph - N/A   Clear
10:55 AM 59.2 °F - 38.7 °F 47% 30.26 in 10.0 mi West 12.7 mph - N/A   Clear
11:15 AM 60.8 °F - 37.9 °F 43% 30.25 in 10.0 mi West 11.5 mph - N/A   Clear
11:35 AM 61.5 °F - 38.3 °F 42% 30.25 in 10.0 mi WSW 10.4 mph - N/A   Clear
11:55 AM 62.6 °F - 38.5 °F 41% 30.24 in 10.0 mi WSW 12.7 mph - N/A   Clear
12:15 PM 63.1 °F - 37.4 °F 39% 30.23 in 10.0 mi WSW 10.4 mph - N/A   Clear
12:35 PM 66.2 °F - 35.8 °F 32% 30.23 in 10.0 mi West 10.4 mph 18.4 mph N/A   Clear
12:55 PM 66.6 °F - 35.2 °F 31% 30.22 in 10.0 mi West 11.5 mph 20.7 mph N/A   Clear
1:15 PM 67.8 °F - 35.6 °F 30% 30.21 in 10.0 mi WSW 15.0 mph 21.9 mph N/A   Clear
1:35 PM 68.5 °F - 33.6 °F 28% 30.20 in 10.0 mi West 12.7 mph 23.0 mph N/A   Clear
1:55 PM 68.9 °F - 34.3 °F 28% 30.19 in 10.0 mi WSW 12.7 mph 19.6 mph N/A   Scattered Clouds
2:15 PM 69.3 °F - 32.0 °F 25% 30.19 in 10.0 mi WNW 18.4 mph 23.0 mph N/A   Mostly Cloudy
2:35 PM 67.5 °F - 32.5 °F 27% 30.18 in 10.0 mi SW 4.6 mph - N/A   Mostly Cloudy
2:55 PM 71.2 °F - 31.6 °F 23% 30.17 in 10.0 mi West 13.8 mph 19.6 mph N/A   Scattered Clouds
3:15 PM 70.9 °F - 31.3 °F 23% 30.17 in 10.0 mi West 10.4 mph - N/A   Mostly Cloudy
3:35 PM 70.2 °F - 31.5 °F 24% 30.17 in 10.0 mi West 9.2 mph - N/A   Scattered Clouds
3:55 PM 70.5 °F - 32.0 °F 24% 30.15 in 10.0 mi WSW 11.5 mph 17.3 mph N/A   Clear
4:15 PM 70.0 °F - 31.8 °F 24% 30.15 in 10.0 mi WSW 8.1 mph - N/A   Clear
4:35 PM 69.6 °F - 31.1 °F 24% 30.15 in 10.0 mi West 11.5 mph - N/A   Scattered Clouds
4:55 PM 69.1 °F - 31.3 °F 25% 30.15 in 10.0 mi SW 9.2 mph - N/A   Clear
5:15 PM 68.0 °F - 31.5 °F 26% 30.15 in 10.0 mi WSW 8.1 mph - N/A   Clear
5:35 PM 66.9 °F - 31.6 °F 27% 30.15 in 10.0 mi WSW 6.9 mph - N/A   Clear
5:55 PM 64.2 °F - 32.0 °F 30% 30.16 in 10.0 mi WSW 4.6 mph - N/A   Clear
6:15 PM 61.3 °F - 32.0 °F 33% 30.16 in 10.0 mi Calm Calm - N/A   Scattered Clouds
6:35 PM 59.9 °F - 32.0 °F 35% 30.16 in 10.0 mi West 3.5 mph - N/A   Scattered Clouds
6:55 PM 56.3 °F - 32.4 °F 40% 30.16 in 10.0 mi West 4.6 mph - N/A   Clear
7:15 PM 54.3 °F - 32.4 °F 43% 30.17 in 10.0 mi WNW 5.8 mph - N/A   Clear
7:35 PM 55.9 °F - 32.2 °F 41% 30.17 in 10.0 mi Calm Calm - N/A   Clear
7:55 PM 52.3 °F - 32.5 °F 47% 30.17 in 10.0 mi WNW 5.8 mph - N/A   Clear
8:15 PM 49.6 °F - 32.9 °F 53% 30.18 in 10.0 mi NNW 6.9 mph - N/A   Clear
8:35 PM 51.4 °F - 32.9 °F 49% 30.17 in 10.0 mi NW 8.1 mph - N/A   Clear
8:55 PM 52.3 °F - 32.9 °F 48% 30.17 in 10.0 mi WNW 9.2 mph - N/A   Clear
9:15 PM 54.5 °F - 32.0 °F 42% 30.17 in 10.0 mi West 4.6 mph - N/A   Clear
9:35 PM 50.7 °F - 32.5 °F 50% 30.17 in 10.0 mi West 4.6 mph - N/A   Clear
9:55 PM 50.4 °F - 32.4 °F 50% 30.17 in 10.0 mi WNW 5.8 mph - N/A   Clear
10:15 PM 50.5 °F - 32.9 °F 51% 30.17 in 10.0 mi NW 6.9 mph - N/A   Clear
10:35 PM 47.7 °F - 33.4 °F 58% 30.17 in 10.0 mi WSW 5.8 mph - N/A   Clear
11:15 PM 45.5 °F 41.3 °F 33.8 °F 64% 30.17 in 10.0 mi West 8.1 mph - N/A   Clear
11:35 PM 45.0 °F 41.8 °F 34.7 °F 67% 30.16 in 10.0 mi West 5.8 mph - N/A   Clear
11:55 PM 43.2 °F 37.9 °F 34.7 °F 72% 30.16 in 10.0 mi West 9.2 mph - N/A   Clear